Regional Weather Roundup
Issued by NWS

Home | Current Version | Previous Version | Text Only | Print | Product List | Glossary On
Versions: 1 2 3 4 5 6 7 8 9 10 11 12 13 14 15 16 17 18 19 20 21 22 23 24 25 26 27 28 29 30 31 32 33 34 35 36 37 38 39 40 41 42 43 44 45 46 47 48 49 50
902
ASUS43 KLMK 010102
RWRKY
KENTUCKY REGIONAL WEATHER ROUNDUP
NATIONAL WEATHER SERVICE LOUISVILLE KY
900 PM EDT SAT APR 30 2016

NOTE "FAIR" INDICATES FEW OR NO CLOUDS BELOW 12,000 FEET
WITH NO SIGNIFICANT WEATHER AND/OR OBSTRUCTIONS TO VISIBILITY.

KYZ001>023-026-027-061>063-070>075-010200-
WESTERN AND SOUTH CENTRAL KENTUCKY

CITY           SKY/WX    TMP DP  RH WIND       PRES   REMARKS
PADUCAH        CLEAR     67  61  81 S6        29.83R
HENDERSON      CLOUDY    68  63  83 SE7       29.83R
OWENSBORO      CLOUDY    68  67  96 S9        29.86R
HOPKINSVILLE   DRIZZLE   67  66  97 SE3       29.87S
BOWLING GREEN  CLOUDY    68  66  93 CALM      29.89R
GLASGOW        NOT AVBL
$$

KYZ024-025-028>034-038-045-046-053-010200-
NORTH CENTRAL KENTUCKY

CITY           SKY/WX    TMP DP  RH WIND       PRES   REMARKS
LOUISVILLE/SDF CLOUDY    66  63  90 SE6       29.89S
LOUISVILLE/LOU LGT RAIN  65  62  90 SE5       29.89F
FORT KNOX      CLOUDY    64  63  95 E7        29.87F
$$

KYZ035>037-039>044-047>052-055>060-089>105-010200-
NORTHEAST KENTUCKY

CITY           SKY/WX    TMP DP  RH WIND       PRES   REMARKS
LEXINGTON      LGT RAIN  62  59  90 SE7       29.94S
COVINGTON      CLOUDY    60  59  96 SE9       29.91F
FRANKFORT      LGT RAIN  63  60  90 SE5       29.91F
$$

KYZ054-064>069-076>088-106>120-010200-
SOUTHEAST KENTUCKY

CITY           SKY/WX    TMP DP  RH WIND       PRES   REMARKS
JACKSON        CLOUDY    61  58  90 CALM      29.96R
LONDON         RAIN      62  60  93 NW3       29.97R FOG
SOMERSET       NOT AVBL
MIDDLESBORO    NOT AVBL
MONTICELLO     LGT RAIN  65  64  97 W7        29.97R
$$





USA.gov is the U.S. government's official web portal to all federal, state and local government web resources and services.